Location: Kawakawa
(35.3830°S, 174.0670°E)
Time: 18:43:38
(UTC+12:00)

deb Kosmos-1763 - Pass Details

Date: 15 August 2020
Orbit: 463 x 477 km, 74.0° (Epoch: 25 September)

Event Time Altitude Azimuth Distance (km) Brightness Sun altitude
Rises 18:22:38 0° 197° (SSW) 2,531 7.8 -6.9°
Reaches altitude 10° 18:24:46 10° 196° (SSW) 1,646 6.8 -7.3°
Maximum altitude 18:28:24 85° 111° (ESE) 479 4.0 -8.0°
Drops below altitude 10° 18:31:59 10° 18° (NNE) 1,624 6.7 -8.7°
Sets 18:34:04 0° 17° (NNE) 2,494 7.6 -9.2°
